User: anonymous   Login
Location: Breckenridge
(39.4820°N, 106.0380°W)
Time: 14:22:44
(UTC-06:00)
Language:

Hubble Space Telescope - Orbit

View from above orbital plane
View from above orbital plane
View from above satellite
View from above satellite

Ground track
Ground track

The orbit data is extracted from the following two-line orbital elements,

1 20580U 90037B   19110.08298611  .00000475  00000-0  18035-4 0  9998
2 20580  28.4689 246.0934 0002598 199.7830 137.7928 15.09209796391876
Epoch (UTC): 20 April 2019 01:59:30
Eccentricity: 0.0002598
inclination: 28.4689°
perigee height: 537 km
apogee height: 540 km
right ascension of ascending node: 246.0934°
argument of perigee: 199.7830°
revolutions per day: 15.09209796
mean anomaly at epoch: 137.7928°
orbit number at epoch: 39187

The dashed part of the orbit path shows where the satellite is in the earth's shadow,  

DLR